| time (UTC) | temp F | wind direction | speed MPH | gust MPH | rain 1hr in | rain 24hr in | rain mn in | humidity % | barometer mb |
| 20260504020014 | 65 | 59 | 1.0 | 5.0 | 0.00 | 0.00 | 0.00 | 36 | 1010.2 |
| 20260504014530 | 67 | 19 | 0.0 | 0.0 | 0.00 | 0.00 | 0.00 | 30 | 1010.2 |
| 20260504013034 | 69 | 5 | 0.0 | 2.0 | 0.00 | 0.00 | 0.00 | 30 | 1010.3 |
| 20260504011526 | 70 | 360 | 1.0 | 3.0 | 0.00 | 0.00 | 0.00 | 24 | 1010.4 |
| 20260504010028 | 70 | 352 | 1.0 | 4.0 | 0.00 | 0.00 | 0.00 | 26 | 1010.6 |
| 20260504004517 | 70 | 325 | 0.0 | 4.0 | 0.00 | 0.00 | 0.00 | 25 | 1010.7 |
| 20260504003021 | 69 | 281 | 2.0 | 9.0 | 0.00 | 0.00 | 0.00 | 27 | 1010.8 |
| 20260504001508 | 68 | 289 | 4.0 | 8.0 | 0.00 | 0.00 | 0.00 | 24 | 1011.0 |
| 20260504000018 | 70 | 325 | 3.0 | 11.0 | 0.00 | 0.00 | 0.00 | 24 | 1011.1 |
| 20260503234515 | 70 | 299 | 5.0 | 11.0 | 0.00 | 0.00 | 0.00 | 24 | 1011.2 |
| 20260503233021 | 69 | 337 | 5.0 | 13.0 | 0.00 | 0.00 | 0.00 | 24 | 1011.3 |
| 20260503231507 | 70 | 313 | 4.0 | 9.0 | 0.00 | 0.00 | 0.00 | 24 | 1011.5 |
| 20260503230008 | 69 | 281 | 3.0 | 8.0 | 0.00 | 0.00 | 0.00 | 25 | 1011.7 |
| 20260503224513 | 69 | 276 | 7.0 | 11.0 | 0.00 | 0.00 | 0.00 | 26 | 1011.9 |
| 20260503223020 | 70 | 238 | 8.0 | 16.0 | 0.00 | 0.00 | 0.00 | 28 | 1012.1 |
| 20260503221518 | 69 | 280 | 7.0 | 15.0 | 0.00 | 0.00 | 0.00 | 30 | 1012.3 |
| 20260503220008 | 69 | 288 | 4.0 | 7.0 | 0.00 | 0.00 | 0.00 | 31 | 1012.7 |
| 20260503214517 | 68 | 352 | 4.0 | 10.0 | 0.00 | 0.00 | 0.00 | 27 | 1013.0 |
| 20260503213015 | 68 | 273 | 2.0 | 9.0 | 0.00 | 0.00 | 0.00 | 27 | 1013.2 |
| 20260503211522 | 67 | 234 | 7.0 | 14.0 | 0.00 | 0.00 | 0.00 | 35 | 1013.5 |
| 20260503210023 | 67 | 171 | 4.0 | 9.0 | 0.00 | 0.00 | 0.00 | 31 | 1013.7 |
| 20260503204508 | 67 | 311 | 2.0 | 7.0 | 0.00 | 0.00 | 0.00 | 30 | 1014.0 |
| 20260503203035 | 66 | 302 | 7.0 | 12.0 | 0.00 | 0.00 | 0.00 | 32 | 1014.3 |
| 20260503201522 | 66 | 238 | 3.0 | 8.0 | 0.00 | 0.00 | 0.00 | 34 | 1014.5 |
| 20260503200026 | 65 | 319 | 7.0 | 12.0 | 0.00 | 0.00 | 0.00 | 32 | 1014.7 |
| 20260503194535 | 66 | 247 | 6.0 | 12.0 | 0.00 | 0.00 | 0.00 | 32 | 1014.8 |
| 20260503193015 | 64 | 296 | 6.0 | 11.0 | 0.00 | 0.00 | 0.00 | 35 | 1015.1 |
| 20260503191518 | 65 | 345 | 3.0 | 5.0 | 0.00 | 0.00 | 0.00 | 35 | 1015.4 |
| 20260503190035 | 65 | 329 | 3.0 | 5.0 | 0.00 | 0.00 | 0.00 | 34 | 1015.6 |
| 20260503184526 | 64 | 329 | 3.0 | 7.0 | 0.00 | 0.00 | 0.00 | 35 | 1015.7 |
| 20260503183023 | 64 | 348 | 2.0 | 8.0 | 0.00 | 0.00 | 0.00 | 37 | 1015.8 |
| 20260503181527 | 63 | 302 | 2.0 | 7.0 | 0.00 | 0.00 | 0.00 | 40 | 1016.0 |
| 20260503174525 | 62 | 56 | 1.0 | 6.0 | 0.00 | 0.00 | 0.00 | 43 | 1016.3 |
| 20260503173024 | 61 | 9 | 2.0 | 6.0 | 0.00 | 0.00 | 0.00 | 43 | 1016.5 |
| 20260503171514 | 59 | 290 | 2.0 | 6.0 | 0.00 | 0.00 | 0.00 | 44 | 1016.6 |
| 20260503081529 | 47 | 98 | 2.0 | 4.0 | 0.00 | 0.00 | 0.00 | 59 | 1017.1 |
| 20260503071529 | 49 | 136 | 4.0 | 7.0 | 0.00 | 0.00 | 0.00 | 55 | 1017.3 |
| 20260503054526 | 53 | 268 | 0.0 | 2.0 | 0.00 | 0.00 | 0.00 | 48 | 1016.9 |
| 20260503053017 | 55 | 61 | 1.0 | 5.0 | 0.00 | 0.00 | 0.00 | 45 | 1016.8 |
| 20260503051512 | 54 | 75 | 0.0 | 5.0 | 0.00 | 0.00 | 0.00 | 47 | 1016.8 |
| 20260503050028 | 54 | 304 | 0.0 | 2.0 | 0.00 | 0.00 | 0.00 | 45 | 1016.6 |
| 20260503044518 | 56 | 292 | 2.0 | 9.0 | 0.00 | 0.00 | 0.00 | 44 | 1016.7 |
| 20260503043025 | 57 | 63 | 4.0 | 7.0 | 0.00 | 0.00 | 0.00 | 40 | 1016.6 |
| 20260503041506 | 57 | 70 | 3.0 | 7.0 | 0.00 | 0.00 | 0.00 | 43 | 1016.6 |
| 20260503040024 | 57 | 54 | 4.0 | 6.0 | 0.00 | 0.00 | 0.00 | 41 | 1016.6 |
| 20260503034514 | 58 | 54 | 3.0 | 8.0 | 0.00 | 0.00 | 0.00 | 41 | 1016.5 |
| 20260503033022 | 59 | 59 | 4.0 | 9.0 | 0.00 | 0.00 | 0.00 | 38 | 1016.3 |
| 20260503031528 | 59 | 105 | 4.0 | 14.0 | 0.00 | 0.00 | 0.00 | 37 | 1016.1 |
| 20260503030008 | 60 | 35 | 2.0 | 11.0 | 0.00 | 0.00 | 0.00 | 35 | 1015.9 |
| 20260503024514 | 60 | 107 | 8.0 | 10.0 | 0.00 | 0.00 | 0.00 | 34 | 1015.6 |
| 20260503023020 | 61 | 123 | 1.0 | 16.0 | 0.00 | 0.00 | 0.00 | 31 | 1015.4 |
| 20260503021525 | 62 | 120 | 7.0 | 10.0 | 0.00 | 0.00 | 0.00 | 33 | 1015.2 |